Location: La Vergne
(36.0160°N, 86.5820°W)
Time: 17:47:13
(UTC-05:00)

Daily predictions for brighter satellites

Satellite Brightness Start Highest point End
(mag) Time Altitude Azimuth Time Altitude Azimuth Time Altitude Azimuth
Thor Agena Rocket 4.1 19:44:23 10° NNE 19:49:18 39° E 19:54:12 10° SSE
Sich 1 3.1 19:45:34 10° N 19:49:48 60° E 19:54:00 10° SSE
Meteor 2-3 Rocket 4.2 19:45:12 10° N 19:50:28 40° ENE 19:55:45 10° SE
SPOT 3 Rocket 4.0 19:45:23 10° S 19:50:31 67° WSW 19:55:39 10° NNW
Cosmos 1455 2.5 19:49:37 10° SSE 19:53:17 47° E 19:57:00 10° NNE
Cosmos 1844 Rocket 2.9 19:47:44 10° NNW 19:53:26 81° WSW 19:59:03 10° SSE
SJ-6B 3.1 19:50:33 10° SSE 19:54:27 51° ENE 19:58:18 10° N
Cosmos 2341 Rocket 4.1 19:54:09 10° SSE 20:00:20 57° E 20:06:31 10° NNE
Aureole 2 3.9 19:57:24 10° SSW 20:00:26 77° ESE 20:03:22 10° NNE
SL-24 R/B - RUBIN 2 4.3 19:56:27 10° NW 20:00:41 53° WSW 20:05:01 10° SSE
Cosmos 2333 Rocket 2.5 19:56:07 10° SSW 20:01:46 75° WNW 20:07:26 10° NNE
Cosmos 2219 Rocket 2.9 19:58:28 10° SW 20:04:02 60° WNW 20:09:38 10° NNE
COSMOS 2428 4.4 20:01:37 10° SW 20:06:56 39° WNW 20:12:17 10° N
Cosmos 1892 2.7 20:03:03 10° N 20:06:58 81° E 20:10:48 10° S
ATLAS CENTAUR R/B 3.0 20:04:19 10° WSW 20:07:40 35° NW 20:11:10 10° NNE
Meteor 2-14 Rocket 4.4 20:01:55 10° S 20:08:00 83° E 20:14:09 10° N
Cosmos 1844 3.9 20:04:20 10° NNW 20:10:04 77° WSW 20:15:48 10° SSE
CZ-2D R/B 3.2 20:06:26 10° SSE 20:10:13 82° ENE 20:14:03 10° N
Cosmos 2237 Rocket 2.1 20:05:01 10° SSW 20:10:35 73° ESE 20:16:12 10° NNE
Cosmos 1939 Rocket 3.4 20:09:03 10° SE 20:12:38 37° ENE 20:16:15 10° N
SL-8 Rocket 4.3 20:08:55 10° SSE 20:14:53 47° E 20:20:51 10° NNE
Genesis I 3.2 20:11:08 10° NNW 20:15:14 80° ENE 20:19:12 10° SSE
Cosmos 1633 Rocket 3.0 20:12:12 10° N 20:16:34 88° W 20:20:56 10° S
USA 186 1.4 20:16:22 16° SE 20:17:54 38° ENE 20:20:05 10° N
Meteor 1-27 4.3 20:12:55 10° S 20:18:39 90° E 20:24:20 10° N
Meteor 2-16 Rocket 4.4 20:13:44 10° S 20:19:51 84° E 20:26:00 10° N
Cosmos 2278 Rocket 2.3 20:18:23 10° NNW 20:24:00 58° ENE 20:29:00 13° SE
OAO 2 Rocket 4.4 20:20:16 10° W 20:25:01 35° SSW 20:28:55 14° SE
Cosmos 1515 Rocket 3.5 20:22:59 10° S 20:27:25 74° E 20:31:53 10° N
OAO 3 Copernicus 4.3 20:29:03 10° WSW 20:34:02 66° SSE 20:37:49 17° E
Cosmos 1371 Rocket 4.0 20:29:05 10° S 20:34:22 72° ESE 20:39:42 10° NNE
ASTRO E2 3.3 20:31:23 10° WSW 20:35:09 39° S 20:37:01 24° ESE
Cosmos 405 Rocket 4.2 20:35:29 19° E 20:35:29 19° E 20:38:09 10° NE
Cosmos 1825 2.4 20:33:56 10° N 20:37:37 49° E 20:39:47 22° SSE
Envisat 3.7 20:33:24 10° S 20:38:21 54° W 20:43:21 10° NNW
Hubble Space Telescope 3.0 20:38:26 10° S 20:39:00 11° S 20:39:00 11° S
H-2A R/B 3.5 20:43:19 17° E 20:44:28 18° ENE 20:47:45 10° NNE
Cosmos 864 Rocket 4.5 20:38:52 10° S 20:44:51 59° E 20:50:51 10° NNE
CZ-3B R/B 4.3 20:44:05 10° NNE 20:44:31 12° NNE 20:44:31 12° NNE
CZ-4C R/B 2.9 20:44:58 24° ESE 20:45:16 24° ESE 20:49:35 10° ENE
OAO 3 Rocket 4.3 20:42:53 10° SSW 20:46:33 22° SSE 20:46:41 22° SSE
Cosmos 2228 Rocket 3.5 20:43:43 10° SSW 20:48:03 62° W 20:52:26 10° N
Meteor 2-10 Rocket 3.8 20:46:34 10° S 20:52:11 62° E 20:57:56 10° NNE
ARGOS 4.1 20:51:35 24° ESE 20:53:22 30° ENE 20:57:58 10° N
Cosmos 2056 Rocket 3.5 20:50:02 10° SSW 20:55:27 89° ESE 21:00:53 10° NNE
Cosmos 1452 Rocket 4.2 20:55:09 29° ESE 20:56:14 32° E 21:00:51 10° NE
Cosmos 1862 4.4 20:53:35 10° NNE 20:56:57 27° ENE 20:56:57 27° ENE
Sakura Rocket 4.0 20:53:21 10° WSW 20:57:48 30° SSW 20:58:50 26° SSE
Cosmos 1408 2.9 20:56:18 10° NNW 20:59:58 65° W 21:02:17 21° S
Cosmos 1470 Rocket 4.4 20:58:29 10° NNW 21:02:46 50° W 21:07:04 10° SSW
SL-16 R/B 2.1 20:57:26 10° SSW 21:03:05 80° ESE 21:08:45 10° NNE
Cosmos 1140 Rocket 4.4 21:03:12 10° N 21:07:40 29° ENE 21:08:24 28° E
Gblst 52 Del rocket 4.0 21:06:06 10° SW 21:11:43 62° SE 21:17:07 10° NE
ATLAS 2AS CENTAUR R/B 3.7 21:05:32 10° NW 21:12:50 47° WSW 21:18:33 15° S
Cosmos 2098 Rocket 3.3 21:10:47 10° SSW 21:15:26 64° W 21:19:09 10° N
Resurs 01 Rocket 2.7 21:12:35 14° SSW 21:16:11 42° W 21:20:24 10° NNW
Cosmos 1190 Rocket 3.9 21:10:57 10° NNW 21:16:14 74° ENE 21:17:55 43° SE
Cosmos 2344 3.5 21:10:31 10° SSW 21:18:06 64° ESE 21:25:57 10° NE
Cosmos 405 2.9 21:16:27 10° N 21:19:45 76° NNE 21:19:45 76° NNE
Spot 2 Rocket 4.0 21:17:24 20° S 21:20:49 58° W 21:25:51 10° NNW
Cosmos 1821 Rocket 4.3 21:26:24 42° ESE 21:27:21 45° E 21:33:18 10° NNE
Cosmos 1954 Rocket 4.3 21:22:33 10° N 21:27:33 45° ENE 21:27:53 44° E
MetOp-A 4.1 21:29:28 53° SE 21:30:34 68° ENE 21:35:54 10° N
Cosmos 1603 4.4 21:31:54 36° ENE 21:31:54 36° ENE 21:35:49 10° NE
Cosmos 1727 Rocket 3.9 21:24:30 10° N 21:30:42 86° W 21:33:38 33° S
Helios 1A 4.4 21:37:13 27° NE 21:37:13 27° NE 21:39:45 10° N
Cosmos 1441 Rocket 3.7 21:37:10 51° WSW 21:37:30 53° W 21:41:11 10° N
BREEZE-M DEB (TANK) 4.3 21:36:09 10° WNW 21:37:31 23° WNW 21:37:31 23° WNW
Terra 4.0 21:40:06 14° NE 21:40:06 14° NE 21:41:35 10° NNE
Cosmos 2297 3.6 21:34:23 10° NNW 21:40:05 84° WSW 21:41:21 56° S
Cosmos 2369 Rocket 3.8 21:36:31 10° N 21:40:33 19° NE 21:40:37 19° ENE
Cosmos 1707 Rocket 3.5 21:42:06 80° NW 21:42:06 80° NW 21:46:17 10° N
NOSS 3-4 (A) 3.8 21:36:35 10° NNW 21:43:48 87° WSW 21:46:16 48° SSE
NOSS 3-4 (C) 3.8 21:36:41 10° NNW 21:43:54 88° WSW 21:46:21 48° SSE
Cosmos 1933 4.2 21:45:41 44° NNE 21:45:41 44° NNE 21:48:32 10° N
Cosmos 614 Rocket 3.9 21:42:17 10° NNW 21:47:28 71° ENE 21:47:28 71° ENE
ERS-1 Rocket 2.9 21:49:53 70° ENE 21:49:53 70° ENE 21:54:42 10° N
SL-08 RB Rocket 3.9 21:53:52 67° N 21:53:52 67° N 21:57:45 10° NNW
Cosmos 1869 Rocket 4.0 21:49:54 10° NNW 21:54:05 55° W 21:54:05 55° W
Cosmos 1420 Rocket 4.0 21:55:12 66° SW 21:55:57 81° WNW 22:01:19 10° NNE
ATLAS 5 CENTAUR R/B 3.8 21:53:21 10° N 21:58:10 24° NE 21:58:49 24° ENE
Cosmos 1535 Rocket 4.4 21:59:33 69° ESE 21:59:46 70° E 22:06:07 10° NNE
Cosmos 407 Rocket 4.5 21:58:54 10° NW 22:03:37 38° WSW 22:04:28 36° SW
GEOS 3 Rocket 4.4 22:04:39 10° NE 22:08:06 41° NE 22:08:06 41° NE
SPOT 5 3.8 22:14:46 38° N 22:14:46 38° N 22:17:33 10° N
Lacrosse 5 3.5 22:11:00 10° NNW 22:14:47 25° NNE 22:14:47 25° NNE
SPOT 1/Viking Rocket 4.0 22:16:47 54° NNE 22:16:47 54° NNE 22:20:54 10° N
Meteor 1-26 Rocket 4.4 22:21:15 64° N 22:21:15 64° N 22:25:57 10° N
ATLAS 2A CENTAUR R/B 3.8 22:04:35 10° WSW 22:21:51 52° S 22:22:31 51° S
H-2A R/B 2.8 22:23:56 45° W 22:23:56 45° W 22:28:18 10° NNW
DMSP B5D2-2 4.5 22:18:59 10° N 22:23:26 60° NNW 22:23:26 60° NNW
CZ-4C R/B 3.3 22:29:40 16° WSW 22:33:21 39° NW 22:38:47 10° NNE
Cosmos 1934 Rocket 4.3 22:41:09 60° WNW 22:41:09 60° WNW 22:46:48 10° N
Cosmos 1943 Rocket 3.4 22:36:36 10° N 22:40:03 33° NNE 22:40:03 33° NNE
BREEZE-M DEB (TANK) 4.2 22:19:42 10° WNW 22:43:25 70° NNE 22:44:19 65° ENE
Terra 4.1 23:18:59 22° NNW 23:18:59 22° NNW 23:20:47 10° NNW
Cosmos 2369 Rocket 3.8 23:19:23 10° NNW 23:22:25 31° NW 23:22:25 31° NW
CZ-2C R/B 4.4 23:22:53 10° N 23:25:12 27° N 23:25:12 27° N
USA 267 4.0 23:26:50 10° NNE 23:33:02 47° NW 23:33:29 47° NW
ATLAS 5 CENTAUR R/B 3.8 23:37:10 10° NW 23:40:22 33° NW 23:40:22 33° NW
